Flag for Germany Weather past 2 weeks in Zeitz, Saxony-Anhalt, Germany

Now
61 °F

Overcast.


Feels Like: 61 °F
Forecast: 51 / 67 °F
Wind: 5 mph from Southwest

Location: Gera-Leumnitz

Current Time: Apr 25, 2015 at 11:51:04 AM

Latest Report: Apr 25, 2015 at 11:00 AM


Visibility: 11 mi

Pressure: 29.82 "Hg

Humidity: 51%

Dew point: 42 °F

Location of ZeitzLocation

Historic Weather in Zeitz — Graph

°F

Zeitz temperature yesterday

Maximum temperature yesterday: 66 °F (at 4:00 PM)
Minimum temperature yesterday: 39 °F (at 6:00 AM)
Average temperature yesterday: 53 °F

Past Weeks' High & Low Weather Summary

 TemperatureHumidityPressure
High72 °F (Apr 15, 5:00 PM)100% (Apr 23, 7:00 AM)30.46 "Hg (Apr 23, 7:00 AM)
Low31 °F (Apr 23, 6:00 AM)20% (Apr 21, 6:00 PM)29.84 "Hg (Apr 25, 10:00 AM)
Average50 °F62%30.17 "Hg
* Reported Apr 10 10:00 AM — Apr 25 10:00 AM, Zeitz, Weather by CustomWeather, © 2015

Note: Actual official high and low records may vary slightly from our data, if they occured in-between our weather recording intervals... More about our weather records

Advertising

Zeitz weather history for previous 24 hours

 ConditionsComfort  
Time TempWeatherWind HumidityBarometerVisibility
10:00 AM
Sat, Apr 25
57 °FOvercast.6 mph54%29.84 "Hg11 mi
9:00 AM54 °FOvercast.6 mph59%29.86 "Hg9 mi
8:00 AM49 °FOvercast.7 mph63%29.86 "Hg13 mi
7:00 AM46 °FOvercast.7 mph67%29.87 "Hg9 mi
6:00 AM45 °FScattered clouds.7 mph69%29.87 "Hg9 mi
5:00 AM45 °FPassing clouds.7 mph68%29.87 "Hg11 mi
3:00 AM46 °FPassing clouds.7 mph65%29.88 "Hg12 mi
1:00 AM46 °FPassing clouds.6 mph67%29.90 "Hg12 mi
12:00 AM48 °FOvercast.6 mph65%29.91 "Hg10 mi
11:00 PM
Fri, Apr 24
51 °FPassing clouds.3 mph57%29.90 "Hg14 mi
10:00 PM53 °FPassing clouds.5 mph52%29.90 "Hg16 mi
9:00 PM56 °FPassing clouds.3 mph49%29.89 "Hg19 mi
8:00 PM61 °FPassing clouds.5 mph39%29.87 "Hg22 mi
7:00 PM64 °FPassing clouds.6 mph35%29.87 "Hg22 mi
6:00 PM65 °FPassing clouds.6 mph33%29.86 "Hg22 mi
5:00 PM65 °FPassing clouds.6 mph38%29.87 "Hg22 mi
4:00 PM66 °FPassing clouds.6 mph39%29.89 "Hg22 mi
3:00 PM64 °FPassing clouds.6 mph41%29.91 "Hg22 mi
2:00 PM63 °FPassing clouds.7 mph43%29.93 "Hg28 mi
1:00 PM62 °FPassing clouds.6 mph44%29.95 "Hg22 mi
12:00 PM62 °FPassing clouds.3 mph47%29.96 "Hg22 mi
11:00 AM59 °FSunny.3 mph46%29.98 "Hg22 mi
Weather by CustomWeather, © 2015

See weather overviewHow to use our weather pages